[Iaude] MPEC D16: 2024 CX7 [a=1.47,e=0.63,i=17.3,H=21.2]
    mpec at cfa.harvard.edu 
    mpec at cfa.harvard.edu
       
    Fri Feb 16 16:39:42 EST 2024
    
    
  
M.P.E.C. 2024-D16                             Issued 2024 February 16, 21:38 UT
     The Minor Planet Electronic Circulars contain information on unusual
         minor planets, routine data on comets and natural satellites,
         and occasional editorial announcements.  They are published
    on behalf of Division F of the International Astronomical Union by the
          Minor Planet Center, Smithsonian Astrophysical Observatory,
                          Cambridge, MA 02138, U.S.A.
			  
             Prepared using the Tamkin Foundation Computer Network
                              MPC at CFA.HARVARD.EDU
            URL https://www.minorplanetcenter.net/    ISSN 1523-6714
                                    2024 CX7                                    
Observations:
     K24C07X  C2024 02 07.41027710 57 07.776+34 40 21.57         21.93GVED016F52
     K24C07X  C2024 02 07.42273110 57 04.736+34 40 23.52         22.31GVED016F52
     K24C07X  C2024 02 07.43516210 57 01.701+34 40 25.48         22.26GVED016F52
     K24C07X* C2024 02 13.56336810 33 14.375+34 36 28.91         22.02wXED016F52
     K24C07X  C2024 02 13.58429210 33 09.544+34 36 24.37         21.95wXED016F52
     K24C07X  C2024 02 13.59474810 33 07.180+34 36 22.01         22.12wXED016F52
     K24C07X  C2024 02 13.65936810 32 52.452+34 36 07.15         21.44GVED016F52
     K24C07X  C2024 02 13.66001410 32 52.325+34 36 07.05         22.59GVED016F52
     K24C07X  C2024 02 15.20954610 27 11.198+34 30 06.86         21.5 GVED016H01
     K24C07X  C2024 02 15.21367010 27 10.279+34 30 06.00         21.7 GVED016H01
     K24C07X  C2024 02 15.23086510 27 06.462+34 30 01.69         21.6 GVED016H01
     K24C07X  C2024 02 15.23393510 27 05.772+34 30 00.86         21.5 GVED016H01
Observer details:
F52 Pan-STARRS 2, Haleakala.  Observers J. Herman, T. Lowe, P. Minguez, A.
    Schultz, I. Smith.  Measurers K. Chambers, T. de Boer, J. Fairlamb, H.
    Gao, M. Huber, C.-C. Lin, E. Magnier, Y. Ramanjooloo, R. Wainscoat, R.
    Weryk.  1.8-m Ritchey-Chretien + CCD.
H01 Magdalena Ridge Observatory, Socorro.  Observers W. H. Ryan, E. V. Ryan.
    Measurer W. H. Ryan.  2.4-m f/8.9 Ritchey-Chretien + CCD.
Orbital elements:
2024 CX7                                                 Earth MOID = 0.2783 AU
Epoch 2024 Mar. 31.0 TT = JDT 2460400.5                 MPC                     
M  89.12586              (2000.0)            P               Q                  
n   0.55206144     Peri.   11.24965     +0.98869952     -0.14921034             
a   1.4716723      Node   357.20655     +0.10380262     +0.75107139             
e   0.6252088      Incl.   17.27849     +0.10815857     +0.64313921             
P   1.79           H   21.21          G   0.15           U   8                  
Residuals in seconds of arc
240207 F52  0.0   0.2-    240213 F52  0.4-  0.0     240215 H01  0.0   0.0
240207 F52  0.0   0.0     240213 F52  0.0   0.0     240215 H01  0.0   0.1+
240207 F52  0.0   0.2+    240213 F52  0.1-  0.0     240215 H01  0.1+  0.0
240213 F52  0.1-  0.0     240213 F52  0.2+  0.0     240215 H01  0.0   0.1-
Ephemeris:
2024 CX7                 a,e,i = 1.47, 0.63, 17                  q = 0.5516
Date    TT    R. A. (2000) Decl.     Delta      r    Elong.  Phase     V
2024 01 17    12 15 06.9 +31 15 17   0.5788  1.3737   120.9    37.9    22.2
...
2024 02 01    11 22 37.0 +34 10 09   0.6009  1.5093   143.0    23.1    22.1
...
2024 02 09    10 50 49.7 +34 42 25   0.6336  1.5767   152.8    16.6    22.1
...
2024 02 15    10 27 56.6 +34 31 04   0.6698  1.6251   156.9    13.8    22.2
2024 02 16    10 24 19.6 +34 26 23   0.6768  1.6330   157.2    13.5    22.2
2024 02 17    10 20 47.0 +34 20 59   0.6842  1.6409   157.4    13.4    22.2
...
2024 02 23    10 01 14.7 +33 35 11   0.7340  1.6869   156.2    13.7    22.5
...
2024 03 02    09 40 22.6 +32 08 17   0.8152  1.7455   150.0    16.5    22.9
...
2024 03 17    09 16 58.7 +28 54 04   1.0057  1.8473   134.8    22.5    23.6
A. U. Tomatic                (C) Copyright 2024 MPC           M.P.E.C. 2024-D16
    
    
More information about the Iaude
mailing list